Theta_e
318 317 316 315 315 315 314 314 313 314 314 314 314 314 314 314 314 314 314 317 319 320 320 320 323 325 327 327 326 326 325 324 322 324 323 324 324 325 326 325 325 324 323
315 313 312 312 311 311 310 310 310 311 311 311 311 312 312 313 314 315 315 315 315 315 315 316 317 318 318 318 320 322 323 324 323 323 324 323 324 324 324 324 324 324 324
313 312 311 310 309 309 308 308 308 307 307 307 307 307 307 308 309 310 311 311 312 312 313 313 312 312 312 312 312 312 312 316 319 320 320 320 321 322 323 324 324 324 323
311 310 308 308 307 307 306 306 305 305 305 304 304 304 304 304 304 306 306 307 308 308 309 309 309 309 309 310 310 310 311 312 312 314 314 314 316 316 316 320 321 321 322
308 307 306 306 306 306 305 304 303 303 303 302 302 301 301 301 301 301 301 301 302 303 304 305 305 306 306 307 308 308 308 309 310 312 313 313 314 316 317 316 317 318 319
307 305 304 304 303 302 302 301 300 299 299 299 299 298 299 298 298 297 297 298 298 299 299 299 300 301 302 303 303 302 304 307 308 310 311 312 312 312 313 314 314 315 316
303 302 301 301 300 299 298 298 298 298 298 298 297 297 297 298 298 297 296 296 297 297 298 298 298 299 299 300 300 301 301 301 302 304 305 306 308 308 309 309 310 310 310
299 298 297 296 296 296 295 294 295 294 294 295 295 295 295 296 296 296 296 296 297 298 298 298 298 299 299 299 299 300 300 301 301 302 304 305 306 307 307 307 307 308 308
294 294 294 294 294 293 293 294 294 294 294 294 293 295 295 295 296 296 296 296 296 297 298 298 298 298 298 299 299 299 299 299 300 300 301 301 302 302 303 303 304 306 307
292 293 293 293 294 293 295 295 294 294 293 294 296 297 297 297 299 299 298 297 296 296 297 297 297 297 298 298 298 298 299 299 299 300 301 301 302 302 302 303 303 304 305
292 293 293 293 294 294 295 294 294 295 296 297 297 298 298 298 300 300 299 297 297 297 297 297 298 297 296 296 298 298 298 299 299 300 300 301 301 302 302 302 302 303 305
292 293 293 293 293 294 294 293 293 297 296 296 296 298 298 299 299 299 299 299 299 297 297 297 297 297 297 296 296 296 296 296 297 298 299 300 300 301 301 302 302 305 307
292 293 293 294 293 293 293 296 296 297 296 296 296 297 298 298 299 299 299 299 299 299 298 298 298 297 297 297 296 297 296 295 296 297 298 299 300 300 301 301 302 305 307
292 293 293 293 293 293 294 296 297 297 296 296 296 297 298 298 299 298 301 303 303 301 300 299 299 300 300 299 298 299 298 297 296 297 298 299 299 300 300 301 303 304 305
292 292 291 291 292 293 295 297 297 298 297 297 298 298 297 297 296 299 300 301 303 304 302 301 300 299 300 300 300 300 300 298 297 297 298 299 300 301 301 301 302 304 305
291 291 291 291 292 294 295 296 297 297 297 297 297 297 296 296 297 299 300 303 304 304 303 300 300 301 301 302 303 303 303 303 302 300 300 300 301 302 303 302 302 304 306
290 290 290 291 291 292 293 294 295 296 296 297 296 295 294 294 297 298 301 304 304 302 300 301 302 303 304 305 306 307 309 311 311 305 303 303 303 303 304 304 304 306 306
291 291 291 290 291 291 291 292 294 294 293 294 295 294 294 295 297 298 300 301 299 300 301 302 303 305 305 305 307 310 314 313 312 312 305 305 306 306 305 306 307 307 308
291 291 291 291 290 290 291 291 292 292 293 293 293 292 293 296 295 298 296 296 298 301 302 301 301 300 301 301 303 306 310 312 311 310 310 309 308 307 308 308 308 309 309
291 290 290 290 290 291 291 291 291 291 291 291 291 290 290 292 292 293 294 295 297 299 300 299 297 297 297 297 298 301 304 311 312 311 310 309 309 309 309 310 309 310 311
290 289 290 290 289 289 290 290 289 289 289 290 290 289 290 290 291 291 292 293 294 296 296 296 295 295 294 294 295 296 300 303 307 312 311 311 311 311 310 310 310 311 312
289 288 289 288 288 288 289 288 288 288 288 288 288 289 289 289 290 290 290 291 292 293 293 294 293 293 292 292 292 293 294 298 308 313 314 312 311 311 311 311 313 314 313
288 288 288 288 288 288 288 288 287 287 288 287 287 287 288 288 288 289 289 290 291 291 292 292 292 291 291 291 292 292 294 299 303 310 316 317 317 316 316 316 315 314 313
288 288 287 287 287 287 287 287 287 287 287 287 286 287 286 287 287 288 288 289 290 290 290 290 290 290 292 293 295 297 299 302 306 312 314 316 317 318 317 315 315 312 309
287 287 286 286 286 286 286 286 285 285 285 285 285 285 285 286 286 286 287 287 288 288 289 289 289 290 292 293 295 298 301 304 306 309 310 315 315 315 315 314 312 310 308
286 286 285 285 285 284 284 284 284 284 284 284 284 284 284 284 285 285 285 286 286 287 287 286 286 286 289 292 294 296 299 302 303 305 306 307 310 312 313 312 311 310 309
Wind_Speed
32 28 23 19 20 19 16 14 14 13 15 16 16 16 15 15 14 13 12 11 9 8 6 6 6 7 10 14 16 17 19 18 7 24 24 30 30 30 29 28 29 27 29
25 24 21 20 18 18 16 14 12 13 13 14 14 15 16 16 15 14 12 11 11 12 12 13 13 12 11 10 11 10 13 20 14 21 20 22 24 24 25 27 31 30 29
21 22 20 19 18 16 15 13 12 12 13 13 14 15 16 17 15 14 12 11 9 9 7 7 9 9 10 12 12 14 12 13 15 19 18 17 20 20 26 29 32 35 32
22 21 20 18 17 14 14 14 15 15 16 16 16 16 17 17 17 17 18 17 15 13 13 13 13 14 14 14 15 16 17 18 21 18 20 20 18 18 23 21 23 22 28
22 20 18 15 14 14 16 17 18 20 21 23 24 25 25 25 18 22 25 24 23 23 22 22 21 19 19 20 18 21 21 19 16 18 19 18 17 16 17 17 21 19 20
19 16 13 12 13 17 18 19 21 23 23 23 24 23 24 21 21 20 19 21 23 23 25 28 30 33 33 32 31 29 24 22 20 19 20 17 19 18 19 20 20 18 10
15 13 12 15 17 19 19 21 22 23 22 22 21 21 22 22 22 20 19 19 20 21 21 21 20 18 20 22 25 26 26 28 31 30 27 26 26 26 24 23 24 23 24
14 13 14 15 15 16 16 17 16 15 16 16 17 18 20 21 20 19 19 19 19 18 19 20 21 22 21 20 18 17 19 21 23 23 24 26 27 25 23 22 23 23 24
9 8 12 14 13 12 14 14 14 17 19 20 18 20 20 21 18 17 17 17 18 18 19 20 21 22 22 21 21 20 21 25 24 24 26 28 29 29 29 24 24 19 15
13 12 12 12 12 14 15 16 16 17 17 18 20 20 18 19 20 19 18 19 16 18 19 21 22 23 24 22 25 22 21 21 21 21 20 23 24 24 23 23 22 19 17
13 12 12 14 13 13 14 13 14 15 17 18 19 20 19 21 24 24 22 21 21 19 20 21 20 21 23 26 25 23 22 25 23 22 21 21 21 22 22 22 26 27 23
14 14 14 14 12 12 13 15 15 15 18 19 21 25 23 27 27 27 25 21 19 21 23 24 25 25 26 27 32 36 35 31 25 22 21 21 21 23 23 23 25 26 30
12 13 13 12 13 14 16 17 17 18 19 18 17 18 23 26 27 29 29 29 25 20 21 24 27 28 29 30 30 29 27 22 23 22 24 25 25 25 22 20 21 21 21
12 12 12 13 14 16 14 16 16 18 18 18 17 17 19 22 26 31 33 29 27 25 24 23 28 31 33 32 32 31 27 27 25 24 25 25 21 17 17 17 17 17 18
11 11 12 12 15 17 16 17 17 17 19 20 20 20 19 22 28 28 30 31 28 24 24 28 28 25 27 25 26 25 27 26 24 27 24 21 19 16 17 15 16 14 15
10 11 11 13 14 16 18 22 15 19 21 18 20 22 22 27 26 27 29 28 25 24 26 22 25 23 24 25 26 27 21 24 26 24 23 21 18 16 15 14 16 14 12
10 11 13 12 11 13 17 17 20 26 25 25 23 25 27 28 25 26 27 27 27 25 20 23 22 24 26 27 27 26 23 24 22 21 22 19 16 14 16 12 11 11 11
9 10 12 12 11 11 12 13 17 18 22 27 27 27 32 28 27 28 28 30 31 29 22 22 23 24 24 24 24 24 23 25 25 16 14 15 15 15 14 10 10 10 10
9 10 11 11 10 12 13 14 12 16 17 19 24 29 34 30 29 29 31 26 24 26 28 28 27 27 27 27 28 29 26 26 26 24 16 13 16 14 9 8 9 9 11
8 9 9 10 12 14 14 13 14 17 17 18 20 24 31 30 31 30 29 27 27 28 28 29 29 30 30 31 31 30 28 22 21 20 17 14 11 9 9 7 9 4 2
7 8 9 9 11 12 14 13 15 16 16 18 19 24 26 21 22 24 26 29 29 28 30 29 30 31 32 32 33 32 30 29 26 18 16 11 8 6 6 6 5 4 4
7 8 9 10 11 12 14 14 16 16 17 18 21 24 27 24 24 26 26 28 28 29 29 28 30 32 34 34 34 35 33 30 30 27 15 13 12 8 7 6 5 4 8
9 10 11 12 14 15 16 17 17 17 17 18 20 23 26 26 26 27 28 30 30 30 31 31 32 36 38 37 38 37 38 36 29 23 18 14 10 8 6 6 6 7 7
12 14 14 17 17 17 17 17 17 18 18 18 20 23 24 26 27 29 30 31 31 31 32 34 36 38 40 41 40 39 37 36 34 25 18 13 11 8 6 5 6 8 9
16 17 18 19 17 17 17 18 19 20 20 21 21 23 25 26 27 29 30 31 29 30 33 35 36 37 39 40 39 37 34 29 29 28 28 22 17 11 8 7 8 8 9
19 20 20 20 20 20 19 19 20 21 21 22 23 24 24 26 27 29 29 30 30 30 31 32 30 32 38 40 39 37 35 30 25 23 24 23 22 19 13 9 6 5 6
Wind_Direction
91 85 85 88 77 73 68 55 42 29 22 16 10 5 7 5 3 357 351 340 328 323 321 318 301 277 273 266 259 258 254 246 245 284 267 263 270 272 274 277 276 271 270
98 106 90 80 73 69 65 58 45 37 27 24 18 11 8 3 357 351 344 333 319 307 296 286 283 283 280 282 270 265 257 274 245 255 260 263 265 273 273 274 276 276 272
99 93 85 80 73 67 62 54 41 30 23 14 4 1 356 354 348 343 342 336 324 314 305 293 287 280 268 265 261 280 276 266 255 259 273 269 266 266 266 268 271 272 273
94 85 80 73 66 58 46 35 24 12 3 357 349 341 334 329 324 315 319 316 311 304 296 289 286 286 285 282 279 280 277 271 271 265 267 269 267 264 264 261 271 273 277
85 77 68 59 44 28 16 5 356 349 341 336 330 324 321 318 314 307 306 302 300 297 291 289 287 283 279 274 275 277 276 272 266 266 267 266 260 253 245 263 265 274 274
78 68 52 36 17 13 357 348 342 338 335 333 330 330 327 323 318 320 313 304 296 292 290 288 285 281 277 277 277 277 270 264 259 254 258 254 253 254 259 259 268 272 274
62 45 24 13 3 356 350 345 345 343 340 339 338 338 335 332 333 328 322 315 309 304 302 299 294 283 277 277 277 276 271 264 257 259 260 256 259 256 259 260 259 261 263
38 20 6 2 0 359 360 358 357 353 352 348 344 343 337 332 333 327 324 314 308 303 302 302 296 295 292 289 287 281 275 270 266 262 253 257 257 259 257 257 261 265 267
27 12 5 7 7 12 10 6 6 360 358 351 350 354 347 336 337 331 326 317 311 303 299 296 298 295 295 291 283 279 276 277 278 273 266 262 261 261 260 268 266 267 272
11 10 10 12 17 19 11 6 359 359 2 2 351 352 346 340 347 339 331 322 305 300 300 297 297 292 291 290 285 275 271 274 275 273 265 263 259 260 263 258 258 246 250
13 16 19 22 25 15 2 357 357 7 357 352 344 350 346 345 345 348 340 323 306 297 292 291 286 297 293 290 282 276 273 284 279 272 268 265 260 260 259 258 260 243 243
17 22 24 23 17 4 5 8 4 2 352 350 347 346 346 346 341 340 340 334 319 301 290 289 289 295 296 289 283 276 276 278 270 264 262 260 257 257 254 250 255 252 244
22 25 22 18 16 13 16 13 359 1 357 341 335 331 331 335 336 339 334 330 323 311 303 295 295 297 295 291 285 288 283 267 255 250 250 251 249 254 256 253 253 250 251
18 22 16 13 11 15 14 6 358 1 350 339 325 319 325 332 338 337 341 336 332 322 318 307 305 306 305 296 296 294 279 259 241 238 242 247 250 247 248 245 237 238 239
10 8 9 6 8 7 7 360 359 358 349 333 339 339 337 340 333 338 343 344 341 330 317 315 314 309 304 301 292 282 277 264 242 238 236 238 235 230 232 233 229 225 228
359 1 1 355 357 7 358 352 1 356 356 0 1 360 350 341 341 342 341 342 347 344 333 319 312 310 304 303 299 302 291 271 254 236 230 226 226 211 217 210 215 210 216
353 4 355 351 350 356 358 355 342 340 348 3 5 1 353 354 360 0 357 353 359 359 330 323 316 314 311 311 311 310 307 313 300 234 219 212 211 201 197 194 196 192 207
5 10 357 353 348 357 355 355 355 343 341 342 356 360 1 10 16 17 22 22 4 360 344 333 339 347 349 347 344 342 348 1 4 3 190 185 181 171 179 186 180 184 190
13 6 2 2 6 9 13 13 0 358 349 343 351 1 6 18 18 28 20 11 355 0 5 8 4 357 354 353 353 357 0 17 29 39 82 130 145 159 168 175 174 187 189
18 12 13 13 21 25 22 15 7 6 355 356 0 360 1 11 9 7 9 6 6 9 4 7 5 5 6 4 2 2 6 13 34 44 62 89 116 134 145 151 170 170 110
22 23 32 32 31 29 29 20 16 10 1 1 0 6 17 11 6 5 4 7 8 9 6 6 7 9 10 10 10 8 12 14 20 37 50 57 78 88 105 122 137 129 147
42 46 47 42 40 36 35 29 24 16 11 9 5 11 19 20 17 12 10 13 12 12 12 11 13 14 14 13 11 11 11 15 22 23 38 57 68 78 92 109 118 107 110
64 64 62 55 53 48 43 38 31 24 20 19 15 15 17 18 17 14 14 15 16 16 17 18 17 18 20 20 23 22 21 19 16 19 28 41 54 70 88 91 92 76 84
76 71 64 60 53 48 42 37 32 31 30 27 24 23 21 19 19 20 19 20 21 20 21 24 21 21 23 23 24 22 24 27 30 34 34 24 31 52 75 81 76 83 95
83 73 65 59 51 46 44 40 36 34 33 31 29 27 24 24 23 23 22 23 20 20 25 25 23 21 23 21 20 19 19 27 32 35 39 40 41 35 40 62 78 89 106
84 79 74 69 59 54 47 41 38 37 34 32 32 32 27 27 26 25 23 25 22 25 24 20 20 19 24 23 21 17 16 18 22 30 30 31 35 38 40 51 61 79 105